| time (UTC) | temp F | wind direction | speed knots | gust knots | rain 1hr in | rain 24hr in | rain mn in | humidity % | barometer mb |
| 20260504021035 | 64 | 263 | 7.8 | 16.5 | 0.00 | 0.32 | 0.13 | 69 | 1014.8 |
| 20260504020534 | 64 | 263 | 7.0 | 15.6 | 0.00 | 0.32 | 0.13 | 69 | 1014.8 |
| 20260504020043 | 64 | 263 | 7.0 | 15.6 | 0.00 | 0.31 | 0.12 | 69 | 1014.8 |
| 20260504015553 | 64 | 263 | 7.0 | 15.6 | 0.00 | 0.31 | 0.12 | 69 | 1014.8 |
| 20260504015042 | 64 | 263 | 7.0 | 15.6 | 0.00 | 0.31 | 0.12 | 69 | 1014.8 |
| 20260504014546 | 64 | 263 | 7.0 | 14.8 | 0.00 | 0.31 | 0.12 | 69 | 1014.8 |
| 20260504014035 | 64 | 263 | 7.0 | 14.8 | 0.00 | 0.31 | 0.12 | 69 | 1014.7 |
| 20260504013543 | 64 | 263 | 7.8 | 14.8 | 0.00 | 0.31 | 0.12 | 69 | 1014.7 |
| 20260504012414 | 64 | 263 | 6.1 | 15.6 | 0.00 | 0.31 | 0.12 | 70 | 1014.6 |
| 20260504011919 | 64 | 263 | 7.0 | 15.6 | 0.00 | 0.31 | 0.12 | 71 | 1014.6 |
| 20260504011420 | 64 | 263 | 7.0 | 15.6 | 0.00 | 0.31 | 0.12 | 70 | 1014.6 |
| 20260504010912 | 63 | 263 | 5.2 | 14.8 | 0.00 | 0.31 | 0.12 | 71 | 1014.5 |
| 20260504005753 | 64 | 263 | 6.1 | 15.6 | 0.00 | 0.31 | 0.12 | 71 | 1014.3 |
| 20260504005238 | 64 | 263 | 7.0 | 15.6 | 0.00 | 0.31 | 0.12 | 71 | 1014.3 |
| 20260504004734 | 63 | 263 | 7.0 | 14.8 | 0.00 | 0.31 | 0.12 | 72 | 1014.3 |
| 20260504004236 | 63 | 263 | 6.1 | 12.2 | 0.00 | 0.31 | 0.12 | 73 | 1014.1 |
| 20260504003048 | 62 | 263 | 6.1 | 11.3 | 0.00 | 0.31 | 0.12 | 75 | 1014.1 |
| 20260504002551 | 62 | 263 | 7.0 | 13.9 | 0.00 | 0.31 | 0.12 | 76 | 1013.9 |
| 20260504002039 | 62 | 263 | 6.1 | 13.9 | 0.00 | 0.31 | 0.12 | 78 | 1013.9 |
| 20260504001523 | 61 | 263 | 5.2 | 13.9 | 0.00 | 0.31 | 0.12 | 80 | 1013.9 |
| 20260504001021 | 61 | 263 | 4.3 | 13.9 | 0.00 | 0.31 | 0.12 | 82 | 1013.8 |
| 20260504000508 | 60 | 263 | 4.3 | 9.6 | 0.00 | 0.31 | 0.12 | 84 | 1013.8 |
| 20260504000016 | 60 | 263 | 4.3 | 13.0 | 0.00 | 0.31 | 0.12 | 84 | 1013.8 |
| 20260503234856 | 60 | 263 | 3.5 | 13.0 | 0.00 | 0.32 | 0.12 | 85 | 1013.8 |
| 20260503233728 | 60 | 263 | 2.6 | 7.0 | 0.00 | 0.32 | 0.12 | 85 | 1013.6 |
| 20260503233229 | 59 | 263 | 2.6 | 12.2 | 0.00 | 0.32 | 0.12 | 85 | 1013.6 |
| 20260503232723 | 59 | 263 | 4.3 | 12.2 | 0.00 | 0.32 | 0.12 | 84 | 1013.3 |
| 20260503232227 | 60 | 263 | 5.2 | 12.2 | 0.00 | 0.32 | 0.12 | 83 | 1013.3 |
| 20260503231713 | 60 | 263 | 3.5 | 12.2 | 0.00 | 0.32 | 0.12 | 83 | 1013.3 |
| 20260503231212 | 61 | 263 | 2.6 | 13.0 | 0.00 | 0.31 | 0.12 | 83 | 1013.1 |
| 20260503230711 | 61 | 263 | 3.5 | 13.0 | 0.00 | 0.31 | 0.11 | 82 | 1013.1 |
| 20260503230211 | 61 | 263 | 4.3 | 13.0 | 0.00 | 0.31 | 0.11 | 82 | 1013.1 |
| 20260503225657 | 61 | 263 | 5.2 | 13.0 | 0.00 | 0.31 | 0.11 | 82 | 1012.8 |
| 20260503225147 | 60 | 263 | 4.3 | 12.2 | 0.00 | 0.31 | 0.11 | 82 | 1012.8 |
| 20260503224635 | 60 | 263 | 4.3 | 12.2 | 0.00 | 0.31 | 0.11 | 83 | 1012.8 |
| 20260503224127 | 60 | 263 | 3.5 | 11.3 | 0.00 | 0.31 | 0.11 | 82 | 1012.7 |
| 20260503223628 | 60 | 263 | 3.5 | 11.3 | 0.00 | 0.31 | 0.11 | 82 | 1012.7 |
| 20260503223111 | 60 | 263 | 4.3 | 11.3 | 0.00 | 0.31 | 0.11 | 82 | 1012.7 |
| 20260503222607 | 60 | 263 | 3.5 | 10.4 | 0.00 | 0.31 | 0.11 | 82 | 1012.4 |
| 20260503222058 | 60 | 263 | 3.5 | 10.4 | 0.00 | 0.31 | 0.11 | 82 | 1012.4 |
| 20260503221539 | 60 | 263 | 3.5 | 10.4 | 0.00 | 0.31 | 0.11 | 82 | 1012.4 |
| 20260503213908 | 60 | 263 | 4.3 | 12.2 | 0.00 | 0.31 | 0.11 | 83 | 1011.8 |
| 20260503213415 | 60 | 263 | 4.3 | 11.3 | 0.00 | 0.31 | 0.11 | 83 | 1011.8 |
| 20260503212906 | 59 | 263 | 4.3 | 11.3 | 0.00 | 0.31 | 0.11 | 83 | 1011.7 |
| 20260503212347 | 59 | 263 | 4.3 | 14.8 | 0.00 | 0.31 | 0.11 | 83 | 1011.7 |
| 20260503211838 | 59 | 263 | 4.3 | 14.8 | 0.00 | 0.31 | 0.11 | 83 | 1011.7 |
| 20260503211336 | 59 | 263 | 5.2 | 14.8 | 0.00 | 0.31 | 0.11 | 82 | 1011.7 |
| 20260503210817 | 59 | 263 | 6.1 | 14.8 | 0.00 | 0.31 | 0.11 | 82 | 1011.7 |
| 20260503210315 | 59 | 263 | 5.2 | 11.3 | 0.00 | 0.33 | 0.11 | 82 | 1011.7 |
| 20260503205759 | 60 | 263 | 4.3 | 10.4 | 0.00 | 0.33 | 0.11 | 82 | 1011.3 |
| 20260503205243 | 60 | 263 | 4.3 | 13.0 | 0.00 | 0.33 | 0.11 | 82 | 1011.3 |
| 20260503204727 | 60 | 263 | 5.2 | 13.0 | 0.00 | 0.33 | 0.11 | 81 | 1011.3 |
| 20260503204227 | 60 | 263 | 5.2 | 13.0 | 0.00 | 0.33 | 0.11 | 81 | 1011.2 |
| 20260503203722 | 60 | 263 | 5.2 | 13.0 | 0.00 | 0.33 | 0.11 | 81 | 1011.2 |
| 20260503203202 | 60 | 263 | 5.2 | 11.3 | 0.00 | 0.33 | 0.11 | 82 | 1011.2 |
| 20260503202658 | 60 | 263 | 5.2 | 11.3 | 0.00 | 0.33 | 0.11 | 82 | 1011.1 |
| 20260503202147 | 60 | 263 | 4.3 | 15.6 | 0.00 | 0.33 | 0.11 | 82 | 1011.1 |
| 20260503201018 | 60 | 263 | 5.2 | 15.6 | 0.00 | 0.33 | 0.11 | 83 | 1010.9 |
| 20260503200510 | 60 | 263 | 4.3 | 14.8 | 0.00 | 0.33 | 0.11 | 83 | 1010.9 |
| 20260503200020 | 60 | 263 | 5.2 | 13.0 | 0.00 | 0.33 | 0.11 | 83 | 1010.9 |
| 20260503195521 | 59 | 263 | 5.2 | 13.0 | 0.00 | 0.33 | 0.11 | 83 | 1010.9 |
| 20260503195024 | 59 | 263 | 4.3 | 12.2 | 0.00 | 0.33 | 0.11 | 83 | 1010.9 |
| 20260503194505 | 59 | 263 | 4.3 | 12.2 | 0.00 | 0.33 | 0.11 | 83 | 1010.9 |
| 20260503194001 | 59 | 263 | 4.3 | 17.4 | 0.00 | 0.33 | 0.11 | 83 | 1010.8 |
| 20260503193446 | 59 | 263 | 4.3 | 17.4 | 0.00 | 0.33 | 0.11 | 83 | 1010.8 |
| 20260503192927 | 59 | 263 | 6.1 | 17.4 | 0.00 | 0.33 | 0.11 | 82 | 1010.8 |
| 20260503192412 | 60 | 263 | 6.1 | 13.0 | 0.00 | 0.33 | 0.11 | 82 | 1010.7 |
| 20260503191903 | 59 | 263 | 4.3 | 13.0 | 0.00 | 0.33 | 0.11 | 82 | 1010.7 |
| 20260503191344 | 59 | 263 | 3.5 | 10.4 | 0.00 | 0.33 | 0.11 | 82 | 1010.9 |
| 20260503190211 | 59 | 263 | 5.2 | 16.5 | 0.00 | 0.33 | 0.11 | 82 | 1010.9 |
| 20260503185713 | 59 | 263 | 5.2 | 16.5 | 0.00 | 0.33 | 0.11 | 82 | 1010.7 |
| 20260503185157 | 59 | 263 | 5.2 | 16.5 | 0.00 | 0.33 | 0.11 | 82 | 1010.7 |
| 20260503184655 | 59 | 263 | 4.3 | 16.5 | 0.00 | 0.33 | 0.11 | 82 | 1010.7 |
| 20260503184156 | 59 | 263 | 5.2 | 13.9 | 0.00 | 0.33 | 0.11 | 82 | 1010.7 |
| 20260503183646 | 59 | 263 | 5.2 | 13.9 | 0.00 | 0.33 | 0.11 | 82 | 1010.7 |
| 20260503182526 | 59 | 263 | 3.5 | 13.9 | 0.00 | 0.33 | 0.11 | 83 | 1010.7 |
| 20260503182028 | 59 | 263 | 4.3 | 13.9 | 0.00 | 0.33 | 0.11 | 83 | 1010.7 |
| 20260503181518 | 59 | 263 | 4.3 | 11.3 | 0.00 | 0.33 | 0.11 | 83 | 1010.7 |
| 20260503181008 | 59 | 263 | 4.3 | 10.4 | 0.00 | 0.33 | 0.11 | 83 | 1010.7 |
| 20260503180505 | 59 | 263 | 5.2 | 12.2 | 0.00 | 0.33 | 0.11 | 84 | 1010.7 |
| 20260503175959 | 59 | 263 | 5.2 | 12.2 | 0.00 | 0.33 | 0.11 | 84 | 1010.7 |
| 20260503175446 | 59 | 263 | 5.2 | 16.5 | 0.00 | 0.33 | 0.11 | 85 | 1010.9 |
| 20260503174952 | 59 | 263 | 5.2 | 16.5 | 0.00 | 0.33 | 0.11 | 85 | 1010.9 |
| 20260503174437 | 59 | 263 | 5.2 | 16.5 | 0.00 | 0.33 | 0.11 | 85 | 1010.9 |
| 20260503170744 | 58 | 263 | 3.5 | 10.4 | 0.00 | 0.33 | 0.11 | 87 | 1011.2 |
| 20260503170238 | 58 | 263 | 2.6 | 16.5 | 0.00 | 0.34 | 0.11 | 87 | 1011.2 |
| 20260503150601 | 57 | 263 | 2.6 | 17.4 | 0.06 | 0.39 | 0.10 | 86 | 1011.6 |
| 20260503131126 | 57 | 263 | 3.5 | 14.8 | 0.11 | 0.29 | 0.29 | 78 | 1012.2 |
| 20260503130612 | 58 | 263 | 4.3 | 14.8 | 0.24 | 0.28 | 0.28 | 77 | 1012.2 |
| 20260503110820 | 58 | 263 | 2.6 | 12.2 | 0.00 | 0.25 | 0.25 | 85 | 1011.7 |
| 20260503110307 | 58 | 263 | 3.5 | 12.2 | 0.03 | 0.25 | 0.25 | 85 | 1011.7 |
| 20260503090126 | 58 | 263 | 0.0 | 3.5 | 0.00 | 0.22 | 0.22 | 85 | 1011.2 |
| 20260503081252 | 62 | 263 | 3.5 | 13.0 | 0.00 | 0.18 | 0.17 | 72 | 1010.2 |
| 20260503080741 | 62 | 263 | 2.6 | 13.0 | 0.00 | 0.18 | 0.17 | 71 | 1010.2 |
| 20260503080227 | 62 | 263 | 2.6 | 13.0 | 0.00 | 0.18 | 0.17 | 70 | 1010.2 |
| 20260503072640 | 61 | 263 | 1.7 | 13.0 | 0.00 | 0.18 | 0.17 | 76 | 1010.5 |
| 20260503072148 | 61 | 263 | 2.6 | 13.0 | 0.00 | 0.18 | 0.17 | 76 | 1010.5 |
| 20260503071645 | 62 | 263 | 2.6 | 13.0 | 0.00 | 0.18 | 0.17 | 76 | 1010.5 |
| 20260503070525 | 62 | 263 | 3.5 | 12.2 | 0.00 | 0.18 | 0.17 | 77 | 1010.2 |
| 20260503060330 | 60 | 263 | 2.6 | 12.2 | 0.00 | 0.20 | 0.17 | 81 | 1010.6 |
| 20260503054804 | 60 | 263 | 6.1 | 21.7 | 0.03 | 0.20 | 0.16 | 78 | 1010.6 |
| 20260503053105 | 65 | 263 | 5.2 | 19.1 | 0.00 | 0.18 | 0.11 | 61 | 1010.1 |
| 20260503052600 | 65 | 263 | 4.3 | 19.1 | 0.00 | 0.18 | 0.11 | 60 | 1010.1 |
| 20260503052059 | 65 | 263 | 4.3 | 17.4 | 0.00 | 0.18 | 0.11 | 59 | 1010.1 |
| 20260503051602 | 66 | 263 | 5.2 | 17.4 | 0.00 | 0.18 | 0.11 | 59 | 1010.1 |
| 20260503051107 | 66 | 263 | 6.1 | 17.4 | 0.00 | 0.18 | 0.11 | 57 | 1009.8 |
| 20260503050549 | 67 | 263 | 4.3 | 17.4 | 0.00 | 0.18 | 0.11 | 56 | 1009.8 |
| 20260503045437 | 66 | 263 | 2.6 | 8.7 | 0.00 | 0.20 | 0.11 | 59 | 1010.0 |
| 20260503044932 | 66 | 263 | 2.6 | 14.8 | 0.00 | 0.22 | 0.11 | 59 | 1010.0 |
| 20260503044425 | 66 | 263 | 3.5 | 14.8 | 0.00 | 0.22 | 0.11 | 58 | 1010.0 |
| 20260503043918 | 67 | 263 | 3.5 | 14.8 | 0.00 | 0.25 | 0.11 | 57 | 1009.9 |
| 20260503042733 | 66 | 263 | 3.5 | 16.5 | 0.00 | 0.26 | 0.11 | 58 | 1010.1 |
| 20260503042213 | 65 | 263 | 4.3 | 16.5 | 0.00 | 0.26 | 0.11 | 61 | 1010.1 |
| 20260503041701 | 65 | 263 | 5.2 | 16.5 | 0.00 | 0.28 | 0.11 | 61 | 1010.1 |
| 20260503041146 | 65 | 263 | 4.3 | 16.5 | 0.00 | 0.28 | 0.11 | 60 | 1010.1 |
| 20260503040634 | 65 | 263 | 3.5 | 15.6 | 0.00 | 0.28 | 0.11 | 60 | 1010.1 |
| 20260503040114 | 65 | 263 | 3.5 | 14.8 | 0.00 | 0.28 | 0.11 | 60 | 1010.1 |
| 20260503035622 | 65 | 263 | 5.2 | 17.4 | 0.00 | 0.28 | 0.11 | 61 | 1010.2 |
| 20260503035130 | 65 | 263 | 6.1 | 17.4 | 0.00 | 0.29 | 0.11 | 60 | 1010.2 |
| 20260503033955 | 65 | 263 | 4.3 | 18.2 | 0.00 | 0.29 | 0.11 | 63 | 1010.3 |
| 20260503033500 | 65 | 263 | 3.5 | 18.2 | 0.00 | 0.29 | 0.11 | 64 | 1010.3 |
| 20260503033003 | 64 | 263 | 3.5 | 18.2 | 0.00 | 0.29 | 0.11 | 65 | 1010.3 |
| 20260503032456 | 64 | 263 | 4.3 | 14.8 | 0.00 | 0.29 | 0.11 | 69 | 1010.5 |
| 20260503031939 | 63 | 263 | 4.3 | 18.2 | 0.00 | 0.30 | 0.11 | 70 | 1010.5 |
| 20260503031439 | 62 | 263 | 4.3 | 18.2 | 0.00 | 0.30 | 0.11 | 73 | 1010.5 |
| 20260503030920 | 61 | 263 | 5.2 | 18.2 | 0.00 | 0.32 | 0.11 | 73 | 1010.9 |
| 20260503025747 | 62 | 263 | 3.5 | 13.9 | 0.00 | 0.33 | 0.11 | 72 | 1010.9 |
| 20260503025229 | 62 | 263 | 4.3 | 18.2 | 0.00 | 0.33 | 0.11 | 70 | 1010.9 |
| 20260503024724 | 64 | 263 | 5.2 | 18.2 | 0.00 | 0.32 | 0.11 | 64 | 1010.9 |
| 20260503024204 | 64 | 263 | 5.2 | 18.2 | 0.00 | 0.32 | 0.10 | 60 | 1010.6 |
| 20260503023650 | 65 | 263 | 3.5 | 18.2 | 0.00 | 0.32 | 0.10 | 60 | 1010.6 |
| 20260503023135 | 65 | 263 | 2.6 | 12.2 | 0.00 | 0.32 | 0.10 | 60 | 1010.6 |
| 20260503022640 | 64 | 263 | 3.5 | 12.2 | 0.00 | 0.32 | 0.10 | 61 | 1011.0 |
| 20260503022128 | 64 | 263 | 4.3 | 13.9 | 0.00 | 0.32 | 0.10 | 60 | 1011.0 |
| 20260503021625 | 64 | 263 | 3.5 | 13.9 | 0.00 | 0.32 | 0.10 | 62 | 1011.0 |